Location: L�beck
(53.8752°N, 10.6787°E)
Time: 15:20:22
(UTC+01:00)

ISS - Pass Details

Date: 07 January 2018
Orbit: 402 x 407 km, 51.6° (Epoch: 21 January)

Event Time Altitude Azimuth Distance (km) Brightness Sun altitude
Exits shadow 07:28:36 10° 268° (W) 1,482 -1.5 -8.9°
Reaches altitude 10° 07:28:38 10° 268° (W) 1,470 -1.5 -8.9°
Maximum altitude 07:31:42 37° 200° (SSW) 658 -2.7 -8.5°
Drops below altitude 10° 07:34:46 10° 131° (SE) 1,468 0.5 -8.1°
Sets 07:36:56 0° 123° (ESE) 2,327 2.5 -7.8°
